HS0QKD-4 Weather Reports


time (UTC)temp
F
wind
direction
speed
knots
gust
knots
rain 1hr
in
rain 24hr
in
rain mn
in
humidity
%
barometer
mb
20260504130806 0 0 0.0 0.0 0.00 0.00 0.00 99 751.0
20260504100428 0 0 0.0 0.0 0.00 0.00 0.00 85 740.0
20260504050438 0 0 0.0 0.0 0.00 0.00 0.00 67 737.0
20260504045415 0 0 0.0 0.0 0.00 0.00 0.00 72 737.0
20260504044354 0 0 0.0 0.0 0.00 0.00 0.00 77 737.0
20260504043332 0 0 0.0 0.0 0.00 0.00 0.00 76 737.0
20260504042309 0 0 0.0 0.0 0.00 0.00 0.00 78 737.0
20260504041252 0 0 0.0 0.0 0.00 0.00 0.00 77 738.0
20260504040225 0 0 0.0 0.0 0.00 0.00 0.00 78 738.0
20260504035203 0 0 0.0 0.0 0.00 0.00 0.00 81 739.0
20260504034141 0 0 0.0 0.0 0.00 0.00 0.00 83 739.0
20260504033119 0 0 0.0 0.0 0.00 0.00 0.00 87 739.0
20260504032057 0 0 0.0 0.0 0.00 0.00 0.00 92 741.0
20260504031035 0 0 0.0 0.0 0.00 0.00 0.00 91 740.0
20260504030013 0 0 0.0 0.0 0.00 0.00 0.00 90 741.0
20260504024953 0 0 0.0 0.0 0.00 0.00 0.00 92 742.0
20260504024220 0 0 0.0 0.0 0.00 0.00 0.00 93 742.0
20260504020903 0 0 0.0 0.0 0.00 0.00 0.00 99 745.0
20260504015849 0 0 0.0 0.0 0.00 0.00 0.00 99 746.0
20260504014843 0 0 0.0 0.0 0.00 0.00 0.00 99 747.0
20260504013757 0 0 0.0 0.0 0.00 0.00 0.00 99 747.0
20260504012210 0 0 0.0 0.0 0.00 0.00 0.00 99 748.0
20260504004442 0 0 0.0 0.0 0.00 0.00 0.00 99 748.0
20260504003415 0 0 0.0 0.0 0.00 0.00 0.00 99 749.0
20260504002354 0 0 0.0 0.0 0.00 0.00 0.00 99 749.0
20260504001331 0 0 0.0 0.0 0.00 0.00 0.00 99 749.0
20260504000309 0 0 0.0 0.0 0.00 0.00 0.00 99 749.0
20260503235248 0 0 0.0 0.0 0.00 0.00 0.00 99 749.0
20260503234226 0 0 0.0 0.0 0.00 0.00 0.00 99 749.0
20260503233202 0 0 0.0 0.0 0.00 0.00 0.00 99 749.0
20260503232140 0 0 0.0 0.0 0.00 0.00 0.00 99 750.0
20260503231118 0 0 0.0 0.0 0.00 0.00 0.00 99 749.0
20260503230056 0 0 0.0 0.0 0.00 0.00 0.00 99 749.0
20260503225034 0 0 0.0 0.0 0.00 0.00 0.00 99 749.0
20260503224012 0 0 0.0 0.0 0.00 0.00 0.00 99 749.0
20260503222950 0 0 0.0 0.0 0.00 0.00 0.00 99 749.0
20260503221928 0 0 0.0 0.0 0.00 0.00 0.00 99 749.0
20260503220906 0 0 0.0 0.0 0.00 0.00 0.00 99 748.0
20260503215844 0 0 0.0 0.0 0.00 0.00 0.00 99 748.0
20260503214822 0 0 0.0 0.0 0.00 0.00 0.00 99 748.0
20260503213800 0 0 0.0 0.0 0.00 0.00 0.00 99 748.0
20260503212738 0 0 0.0 0.0 0.00 0.00 0.00 99 748.0
20260503211717 0 0 0.0 0.0 0.00 0.00 0.00 99 748.0
20260503210653 0 0 0.0 0.0 0.00 0.00 0.00 99 748.0
20260503205631 0 0 0.0 0.0 0.00 0.00 0.00 99 748.0
20260503204609 0 0 0.0 0.0 0.00 0.00 0.00 99 747.0
20260503203547 0 0 0.0 0.0 0.00 0.00 0.00 99 747.0
20260503202525 0 0 0.0 0.0 0.00 0.00 0.00 99 747.0
20260503201503 0 0 0.0 0.0 0.00 0.00 0.00 99 747.0
20260503200441 0 0 0.0 0.0 0.00 0.00 0.00 99 747.0
20260503195419 0 0 0.0 0.0 0.00 0.00 0.00 99 747.0
20260503194357 0 0 0.0 0.0 0.00 0.00 0.00 99 747.0
20260503193335 0 0 0.0 0.0 0.00 0.00 0.00 99 747.0
20260503192313 0 0 0.0 0.0 0.00 0.00 0.00 99 747.0
20260503191252 0 0 0.0 0.0 0.00 0.00 0.00 99 747.0
20260503190229 0 0 0.0 0.0 0.00 0.00 0.00 99 747.0
20260503185207 0 0 0.0 0.0 0.00 0.00 0.00 99 747.0
20260503184144 0 0 0.0 0.0 0.00 0.00 0.00 99 746.0
20260503183122 0 0 0.0 0.0 0.00 0.00 0.00 99 747.0
20260503182100 0 0 0.0 0.0 0.00 0.00 0.00 99 747.0
20260503181038 0 0 0.0 0.0 0.00 0.00 0.00 99 747.0
20260503180016 0 0 0.0 0.0 0.00 0.00 0.00 99 747.0
20260503174954 0 0 0.0 0.0 0.00 0.00 0.00 99 747.0
20260503173932 0 0 0.0 0.0 0.00 0.00 0.00 99 747.0
20260503172910 0 0 0.0 0.0 0.00 0.00 0.00 99 747.0
20260503171848 0 0 0.0 0.0 0.00 0.00 0.00 99 747.0
20260503170826 0 0 0.0 0.0 0.00 0.00 0.00 99 747.0
20260503150402 0 0 0.0 0.0 0.00 0.00 0.00 99 745.0
20260503140149 0 0 0.0 0.0 0.00 0.00 0.00 96 743.0